Location: Friaudour
(46.0460°N, 1.2873°E)
Time: 21:06:59
(UTC+00:00)

Cosmos 468 Rocket - Pass Details

Date: 14 July 2020
Orbit: 743 x 780 km, 74.0° (Epoch: 14 August)

Event Time Altitude Azimuth Distance (km) Brightness Sun altitude
Rises 02:33:13 0° 339° (NNW) 3,266 7.7 -14.0°
Reaches altitude 10° 02:35:38 10° 342° (NNW) 2,338 7.0 -13.8°
Maximum altitude 02:40:57 72° 67° (ENE) 822 4.3 -13.2°
Drops below altitude 10° 02:46:14 10° 152° (SSE) 2,328 6.3 -12.7°
Sets 02:48:37 0° 154° (SSE) 3,251 7.0 -12.4°
